Location: Agendoh
(31.0664°N, 8.9343°W)
Time: 11:24:34
(UTC+00:00)

Cosmos 1151 Rocket - Pass Details

Date: 08 July 2022
Orbit: 592 x 614 km, 82.5° (Epoch: 07 August)

Event Time Altitude Azimuth Distance (km) Brightness Sun altitude
Rises 02:58:41 0° 336° (NNW) 2,885 6.9 -27.1°
Reaches altitude 10° 03:01:17 10° 322° (NW) 1,975 5.8 -26.7°
Enters shadow 03:02:03 14° 314° (NW) 1,749 5.4 -26.6°
